{"data":{"norad_id":69507,"intl_designator":"2026-132F","name":"HORN-R","alt_names":[],"object_type":"PAYLOAD","status":"ACTIVE","operator":null,"country":"JPN","launch_date":"2026-06-12","launch_site_code":"TANSC","launch_vehicle":null,"mission":null,"orbit_class":"UNKNOWN","rcs_meters":null,"size_class":null,"mass_kg":null,"dimensions":null,"purposes":[],"wikipedia_slug":null,"has_3d_model":false,"image_url":null,"decayed_at":null,"tle_current":{"epoch":"2026-09-17T15:14:02.946048Z","epoch_age_seconds":280961,"freshness":"STALE","line1":"1 69507U 26132F   26260.63475632  .00001940  00000+0  90129-4 0  9991","line2":"2 69507  97.6783 324.6402 0004940 315.0349  45.0485 15.21249679 14728","mean_motion":15.21249679,"eccentricity":0.000494,"inclination_deg":97.6783,"raan_deg":324.6402,"arg_perigee_deg":315.0349,"mean_anomaly_deg":45.0485,"bstar":9.0129e-5,"rev_number":1472,"period_min":94.659017508986,"perigee_km":498.67123332271,"apogee_km":505.46887789365,"semimajor_km":6880.2070556082,"source":"CELESTRAK","updated_at":"2026-09-20T09:00:24.938511Z"}}}